FW8089 Weather Reports


Display with metric or nautical units.
time (UTC)temp
F
wind
direction
speed
MPH
gust
MPH
rain 1hr
in
rain 24hr
in
rain mn
in
humidity
%
barometer
mb
20260510005652 63 23 5.0 10.0 0.00 0.00 0.00 70 999.0
20260510005131 64 279 5.0 10.0 0.00 0.00 0.00 70 999.1
20260510004640 64 284 4.0 14.0 0.00 0.00 0.00 71 999.1
20260510004121 63 355 5.0 14.0 0.00 0.00 0.00 72 999.3
20260510003622 63 301 6.0 14.0 0.00 0.00 0.00 72 999.2
20260510003103 63 268 6.0 14.0 0.00 0.00 0.00 72 999.1
20260510002558 63 222 5.0 15.0 0.00 0.00 0.00 73 999.1
20260510002047 63 304 6.0 15.0 0.00 0.00 0.00 73 999.0
20260510001542 63 246 6.0 17.0 0.00 0.00 0.00 74 999.0
20260510001036 63 291 7.0 17.0 0.00 0.00 0.00 75 999.1
20260510000520 62 277 8.0 19.0 0.00 0.00 0.00 73 999.1
20260509234749 62 275 9.0 19.0 0.00 0.00 0.00 74 999.1
20260509234248 62 287 8.0 17.0 0.00 0.00 0.00 74 999.2
20260509233749 62 258 8.0 18.0 0.00 0.00 0.00 75 999.3
20260509233246 62 300 8.0 18.0 0.00 0.00 0.00 76 999.3
20260509232732 62 274 9.0 18.0 0.00 0.00 0.00 75 999.5
20260509231624 62 253 7.0 17.0 0.00 0.00 0.00 74 999.5
20260509231125 62 285 6.0 17.0 0.00 0.00 0.00 75 999.5
20260509230633 62 249 7.0 14.0 0.00 0.00 0.00 75 999.5
20260509230141 62 262 7.0 14.0 0.00 0.00 0.00 75 999.6
20260509225015 62 307 9.0 17.0 0.00 0.00 0.00 75 999.6
20260509223905 62 286 4.0 11.0 0.00 0.03 0.00 76 999.5
20260509221512 61 222 3.0 13.0 0.00 0.08 0.00 76 999.8
20260509220954 60 141 2.0 8.0 0.00 0.09 0.00 76 999.9
20260509220448 60 296 4.0 10.0 0.00 0.09 0.00 76 999.9
20260509215928 60 283 5.0 10.0 0.00 0.09 0.00 76 999.9
20260509215408 60 277 4.0 10.0 0.00 0.09 0.00 76 999.9
20260509214915 60 295 3.0 8.0 0.00 0.09 0.00 76 1000.0
20260509214402 60 258 2.0 7.0 0.00 0.09 0.00 76 999.8
20260509213842 60 5 3.0 10.0 0.00 0.09 0.00 77 999.9
20260509213329 60 273 4.0 10.0 0.00 0.09 0.00 76 999.8
20260509212820 60 289 4.0 10.0 0.00 0.09 0.00 77 999.8
20260509212310 60 251 4.0 10.0 0.00 0.09 0.00 77 999.9
20260509211803 59 296 3.0 8.0 0.00 0.09 0.00 77 999.9
20260509211246 59 291 3.0 8.0 0.00 0.09 0.00 78 999.9
20260509210738 59 267 4.0 8.0 0.00 0.09 0.00 78 999.9
20260509210238 59 289 4.0 11.0 0.00 0.09 0.00 78 999.9
20260509205726 59 288 3.0 11.0 0.00 0.09 0.00 78 999.8
20260509205220 58 262 4.0 11.0 0.00 0.09 0.00 78 999.8
20260509204715 58 291 4.0 11.0 0.00 0.09 0.00 78 999.8
20260509204157 58 274 2.0 9.0 0.00 0.09 0.00 78 999.8
20260509203638 58 246 2.0 10.0 0.00 0.09 0.00 78 999.8
20260509203118 58 303 2.0 10.0 0.00 0.09 0.00 78 999.7
20260509202621 57 211 4.0 10.0 0.00 0.09 0.00 78 999.7
20260509201442 57 258 1.0 5.0 0.00 0.09 0.00 79 999.4
20260509200943 56 321 1.0 5.0 0.00 0.09 0.00 78 999.5
20260509200446 57 23 1.0 7.0 0.00 0.09 0.00 78 999.5
20260509195934 57 280 2.0 7.0 0.00 0.09 0.00 78 999.4
20260509195441 57 282 4.0 9.0 0.00 0.09 0.00 77 999.5
20260509194939 57 248 4.0 9.0 0.00 0.09 0.00 78 999.4
20260509194437 57 321 3.0 10.0 0.00 0.09 0.00 78 999.4
20260509193945 57 302 4.0 10.0 0.00 0.09 0.00 78 999.4
20260509193448 57 263 4.0 10.0 0.00 0.09 0.00 78 999.2
20260509192946 57 260 5.0 10.0 0.00 0.09 0.00 77 999.2
20260509192448 57 267 5.0 12.0 0.00 0.09 0.00 77 999.2
20260509191939 57 310 5.0 12.0 0.00 0.09 0.00 77 999.1
20260509190149 56 273 5.0 11.0 0.00 0.09 0.00 78 999.0
20260509185041 57 296 3.0 11.0 0.00 0.09 0.00 78 999.0
20260509184523 57 279 4.0 11.0 0.00 0.09 0.00 78 998.9
20260509184021 57 273 4.0 11.0 0.00 0.09 0.00 78 998.9
20260509183505 57 310 3.0 9.0 0.00 0.09 0.00 78 998.9
20260509182947 57 291 4.0 9.0 0.00 0.09 0.00 78 998.9
20260509182437 57 338 4.0 9.0 0.00 0.09 0.00 78 998.8
20260509181314 57 294 5.0 15.0 0.00 0.09 0.00 77 998.7
20260509180800 57 301 6.0 15.0 0.00 0.09 0.00 76 998.7
20260509180247 57 288 6.0 15.0 0.00 0.09 0.00 75 998.8
20260509175749 57 320 4.0 13.0 0.00 0.09 0.00 76 998.8
20260509175246 57 248 2.0 10.0 0.00 0.09 0.00 76 998.8
20260509174133 57 242 2.0 15.0 0.00 0.13 0.00 75 998.8
20260509173619 57 294 4.0 15.0 0.00 0.13 0.00 75 998.9
20260509172446 57 263 6.0 15.0 0.00 0.13 0.00 74 999.0
20260509171951 58 267 6.0 12.0 0.00 0.13 0.00 75 999.0
20260509170809 57 284 5.0 11.0 0.00 0.13 0.00 75 999.0
20260509165016 57 280 3.0 11.0 0.00 0.13 0.00 75 998.9
20260509163840 57 293 3.0 10.0 0.00 0.13 0.00 75 999.0
20260509163334 57 317 3.0 10.0 0.00 0.13 0.00 76 998.9
20260509161551 57 235 5.0 11.0 0.00 0.13 0.00 74 998.9
20260509161040 57 287 4.0 11.0 0.00 0.13 0.00 75 998.8
20260509160533 57 251 5.0 12.0 0.00 0.13 0.00 75 998.9
20260509160023 57 307 6.0 12.0 0.00 0.13 0.00 76 998.9
20260509155525 57 284 5.0 18.0 0.00 0.13 0.00 76 998.9
20260509155015 57 326 4.0 18.0 0.00 0.13 0.00 75 998.9
20260509154502 57 292 6.0 18.0 0.00 0.13 0.00 75 998.9
20260509154006 57 292 7.0 18.0 0.00 0.13 0.00 75 999.0
20260509152839 57 268 7.0 14.0 0.00 0.13 0.00 75 999.2
20260509152323 57 284 7.0 14.0 0.00 0.13 0.00 75 999.2
20260509151801 57 272 7.0 13.0 0.00 0.13 0.00 74 999.2
20260509151302 57 251 7.0 13.0 0.00 0.13 0.00 74 999.3
20260509150141 57 253 7.0 15.0 0.00 0.13 0.00 74 999.4
20260509145637 57 291 6.0 17.0 0.00 0.13 0.00 74 999.4
20260509145129 57 260 6.0 17.0 0.00 0.13 0.00 73 999.3
20260509144622 57 281 9.0 17.0 0.00 0.13 0.00 72 999.4
20260509144111 57 260 10.0 17.0 0.00 0.13 0.00 72 999.5
20260509143615 57 282 9.0 16.0 0.00 0.13 0.00 73 999.6
20260509143121 57 260 8.0 17.0 0.00 0.13 0.00 73 999.6
20260509142617 57 275 7.0 17.0 0.00 0.13 0.00 73 999.7
20260509142122 57 262 7.0 17.0 0.00 0.13 0.00 73 999.6
20260509141603 57 256 8.0 17.0 0.00 0.13 0.00 73 999.6
20260509141111 58 308 8.0 17.0 0.00 0.13 0.00 72 999.6
20260509140551 58 291 8.0 18.0 0.00 0.13 0.00 73 999.7
20260509140053 58 270 9.0 18.0 0.00 0.13 0.00 73 999.6
20260509135552 58 293 8.0 18.0 0.00 0.13 0.00 73 999.6
20260509135040 58 291 7.0 14.0 0.00 0.13 0.00 74 999.6
20260509134534 58 284 6.0 15.0 0.00 0.13 0.00 75 999.6
20260509134035 58 313 6.0 15.0 0.00 0.13 0.00 74 999.5
20260509132923 58 268 5.0 12.0 0.00 0.13 0.00 75 999.6
20260509131742 58 256 6.0 15.0 0.00 0.13 0.00 74 999.6
20260509130607 58 272 6.0 20.0 0.00 0.13 0.00 74 999.5
20260509130058 58 312 8.0 20.0 0.00 0.13 0.00 74 999.6
20260509125542 58 293 8.0 20.0 0.00 0.13 0.00 74 999.6
20260509124408 58 246 9.0 16.0 0.00 0.13 0.00 73 999.5
20260509123852 58 283 7.0 16.0 0.00 0.13 0.00 73 999.7
20260509123344 58 270 6.0 15.0 0.00 0.13 0.00 75 999.7
20260509122830 58 275 6.0 15.0 0.00 0.13 0.00 75 999.8
20260509122316 58 215 7.0 15.0 0.00 0.13 0.00 75 999.7
20260509121825 58 270 5.0 15.0 0.00 0.13 0.00 76 999.8
20260509121330 58 258 5.0 13.0 0.00 0.13 0.00 76 999.9
20260509120826 58 265 6.0 13.0 0.00 0.13 0.00 75 999.9
20260509120331 58 279 5.0 15.0 0.00 0.13 0.00 75 999.9
20260509115208 58 255 8.0 15.0 0.00 0.13 0.13 75 1000.0
20260509114702 58 292 6.0 15.0 0.00 0.13 0.13 76 1000.1
20260509113538 58 246 8.0 17.0 0.00 0.13 0.13 76 1000.3
20260509113031 57 312 8.0 17.0 0.00 0.13 0.13 76 1000.1
20260509112538 57 279 8.0 17.0 0.00 0.13 0.13 75 1000.2
20260509112022 58 273 9.0 16.0 0.00 0.14 0.13 75 1000.3
20260509110851 58 277 9.0 23.0 0.00 0.14 0.13 74 1000.3
20260509110338 58 274 10.0 23.0 0.00 0.14 0.13 73 1000.4
20260509105840 58 248 10.0 23.0 0.00 0.14 0.13 72 1000.4
20260509104036 58 280 8.0 18.0 0.00 0.22 0.13 72 1000.5
20260509102851 58 305 8.0 15.0 0.00 0.37 0.13 71 1000.6
20260509102349 58 260 7.0 15.0 0.00 0.41 0.13 71 1000.7
20260509101854 58 265 7.0 16.0 0.00 0.43 0.13 71 1000.7
20260509101337 59 253 8.0 16.0 0.00 0.51 0.13 70 1000.7
20260509100817 59 265 7.0 16.0 0.00 0.51 0.13 70 1000.7
20260509100313 59 260 7.0 15.0 0.00 0.51 0.13 69 1000.7
20260509095811 59 289 7.0 18.0 0.00 0.52 0.13 68 1000.7
20260509095314 58 260 7.0 18.0 0.00 0.53 0.13 68 1000.8
20260509094800 58 286 8.0 18.0 0.00 0.53 0.13 68 1000.7
20260509094308 58 279 8.0 18.0 0.00 0.53 0.13 69 1000.8
20260509093811 58 275 7.0 23.0 0.00 0.53 0.13 69 1000.8
20260509093300 58 294 7.0 23.0 0.00 0.54 0.13 69 1000.7
20260509092742 58 254 8.0 23.0 0.00 0.55 0.13 69 1000.6
20260509092227 58 317 8.0 23.0 0.00 0.57 0.13 69 1000.6
20260509091713 58 254 8.0 17.0 0.00 0.58 0.13 70 1000.6
20260509091153 58 272 8.0 17.0 0.00 0.60 0.13 70 1000.7
20260509090637 58 239 7.0 17.0 0.00 0.62 0.13 71 1000.5
20260509085455 58 301 7.0 17.0 0.00 0.67 0.13 71 1000.5
20260509084358 58 292 9.0 21.0 0.00 0.70 0.13 71 1000.4
20260509083845 58 289 11.0 21.0 0.00 0.70 0.13 69 1000.4
20260509082742 58 292 10.0 19.0 0.00 0.72 0.13 68 1000.5
20260509082223 58 273 9.0 20.0 0.00 0.72 0.13 68 1000.5
20260509081050 58 307 6.0 20.0 0.00 0.72 0.13 70 1000.5
20260509075307 58 272 8.0 20.0 0.00 0.72 0.13 70 1000.4
20260509074809 58 312 6.0 19.0 0.00 0.72 0.13 71 1000.4
20260509074311 58 222 7.0 19.0 0.00 0.73 0.13 70 1000.5
20260509072524 58 272 6.0 14.0 0.00 0.74 0.13 69 1000.3
20260509072011 58 2 5.0 14.0 0.00 0.74 0.13 70 999.9
20260509071457 58 332 6.0 15.0 0.00 0.74 0.13 69 999.5
20260509070947 58 300 7.0 15.0 0.00 0.74 0.13 69 999.5
20260509070447 58 270 7.0 15.0 0.00 0.74 0.13 70 999.5
20260509065328 58 357 5.0 13.0 0.00 0.74 0.13 71 999.8
20260509064815 58 112 6.0 14.0 0.00 0.74 0.13 70 999.8
20260509063022 58 273 7.0 19.0 0.00 0.74 0.13 72 999.9
20260509061806 58 277 9.0 19.0 0.00 0.74 0.13 71 999.9
20260509061248 58 279 8.0 19.0 0.00 0.74 0.13 70 999.9
20260509060733 58 23 8.0 20.0 0.00 0.74 0.13 70 999.9
20260509060224 58 241 8.0 20.0 0.00 0.74 0.13 70 999.8
20260509055717 58 258 9.0 20.0 0.00 0.74 0.13 70 999.8
20260509055209 58 287 10.0 20.0 0.00 0.74 0.13 71 999.9
20260509054701 58 285 9.0 19.0 0.00 0.74 0.13 71 999.9
20260509054201 58 284 9.0 21.0 0.00 0.74 0.13 72 999.9
20260509053702 58 296 10.0 21.0 0.00 0.74 0.13 71 999.9
20260509053141 58 296 9.0 21.0 0.00 0.74 0.13 71 999.9
20260509052627 58 281 8.0 21.0 0.00 0.74 0.13 71 999.9
20260509052117 58 287 7.0 19.0 0.00 0.74 0.13 72 1000.0
20260509051606 59 262 7.0 18.0 0.00 0.74 0.13 73 1000.0
20260509051053 59 291 8.0 18.0 0.00 0.74 0.13 73 999.9
20260509045922 59 262 9.0 17.0 0.00 0.74 0.13 72 999.8
20260509044751 60 248 10.0 19.0 0.00 0.74 0.13 72 1000.0
20260509044255 60 281 9.0 21.0 0.00 0.74 0.13 71 999.8
20260509043757 60 273 8.0 21.0 0.00 0.74 0.13 72 999.8
20260509043238 60 324 9.0 21.0 0.00 0.74 0.13 72 999.8
20260509042739 61 286 10.0 21.0 0.00 0.74 0.13 72 999.8
20260509041554 61 279 9.0 20.0 0.00 0.74 0.13 71 1000.0
20260509041046 61 300 7.0 17.0 0.00 0.74 0.13 73 1000.1
20260509035937 62 239 7.0 24.0 0.00 0.74 0.13 73 999.9
20260509035422 62 267 9.0 24.0 0.00 0.74 0.13 72 1000.0
20260509034230 63 251 6.0 19.0 0.00 0.74 0.13 71 1000.0
20260509033725 63 255 5.0 14.0 0.00 0.74 0.13 71 1000.1
20260509033211 63 311 6.0 14.0 0.00 0.74 0.13 72 1000.0
20260509032653 63 302 6.0 16.0 0.00 0.74 0.13 73 1000.0
20260509032139 63 265 7.0 16.0 0.00 0.74 0.13 73 1000.0
20260509031034 62 297 8.0 19.0 0.00 0.74 0.13 74 999.9
20260509025232 63 272 6.0 18.0 0.00 0.74 0.13 75 999.5
20260509024731 63 299 6.0 18.0 0.00 0.74 0.13 75 999.4
20260509024219 63 253 5.0 18.0 0.00 0.74 0.13 75 999.4
20260509023711 63 287 5.0 15.0 0.00 0.74 0.13 75 999.3
20260509023153 63 325 6.0 14.0 0.00 0.74 0.13 75 999.3
20260509022641 63 325 5.0 18.0 0.00 0.74 0.13 75 999.3
20260509022136 63 320 6.0 18.0 0.00 0.74 0.13 76 999.2
20260509020401 64 282 5.0 14.0 0.00 0.74 0.13 76 998.9
20260509015910 64 325 6.0 15.0 0.00 0.74 0.13 77 998.9
20260509015407 63 296 6.0 15.0 0.00 0.74 0.13 76 999.0
20260509014900 63 353 5.0 15.0 0.00 0.74 0.13 77 999.0
20260509014408 64 272 6.0 15.0 0.00 0.74 0.13 76 999.1
20260509013849 63 277 5.0 14.0 0.00 0.74 0.13 78 999.2
20260509013352 63 47 4.0 17.0 0.00 0.74 0.13 78 999.2
20260509012855 62 283 5.0 17.0 0.00 0.74 0.13 78 999.2
20260509011106 62 312 6.0 18.0 0.00 0.74 0.13 78 999.6
20260509010545 62 313 7.0 18.0 0.00 0.74 0.13 78 999.6
20260509010028 62 246 7.0 18.0 0.00 0.74 0.13 78 999.7